STARLINK-32884, 62953

Orbit data source: Space-Track

STARLINK-32884, 62953 is a payload satellite owned by SpaceX/Seattle (US) in LEO that was launched on Tue, 11 Feb 2025 UTC via an FALCON 9 launch vehicle from the Air Force Western Test Range (AFWTR). Payload-class satellites include a variety of spacecraft equipped with specific instruments for various scientific and technological missions. These include communications satellites like Starlink; space stations such as the ISS; scientific satellites like the Hubble; Earth observation satellites from companies like Planet Labs, Umbra, and HawkEye 360; GPS; miniature CubeSats for education and research; and military/defense satellites.

Loading next visibility...
Identifier
62953, 2025-029F
Orbit
LEO
Country
Flag of USUS
Related business
Manufacturer
SpaceX/Seattle
Mission
Operational Commercial Communications
Bus & Motor
STARLINK V2M, Unknown motor
Mass
730 kg wet, ~700 kg dry
Launch date (UTC)
2025-02-11 (1 year ago)
Launch vehicle
FALCON 9
Launch site
Air Force Western Test Range (AFWTR)
Object type
Payload
Rocket body
Debris
Shape & HBR
Box + 2 Pan, 17.7 m
Radar Cross Section
33.884 m², Large (>1 m²)

Expand to show TLE details & history
Last TLE update: 1 day ago

TLE from 1 day ago
0 STARLINK-32884
1 62953U 25029F   26170.83621800  .00050737  00000-0  14990-2 0  9994
2 62953  53.1608 114.6714 0001327  87.7572 272.3582 15.34475805 77019
Epoch: 2026-06-19T20:04Z
TLE epoch observation values (Epoch: 2026-06-19T20:04:09.235Z)
Latitude
-0.00005°
Longitude
-94.4266°
Altitude
463.342 km
Speed
7.636 km/s
True Right ascension
07h 38m 41s
True Declination
0° 00' 00"
Sunlit
Object was in daylight at epoch
Visualization orbit readout
Latitude
Unknown
Longitude
Unknown
Altitude
Unknown
Speed
Unknown
Apparent Right ascension
Unknown
Apparent Declination
Unknown
Sunlit
N/A
Visualization observer readout
Local Sidereal Time
07:16:36
Azimuth
Unknown
Elevation
Unknown
Doppler factor
Unknown
Orbital elements
Apogee altitude
463.642 km
Perigee altitude
461.827 km
Semi-major axis
6,840.872 km
Eccentricity
0.00013
Inclination
53.1608°
RAAN
114.6714°
Arg. of periapsis
87.7572°
True anomaly
272.34301°
Mean anomaly
272.3582°
Eccentric anomaly
272.3506°
Mean motion
3.83598 °/min
Orbital period
93.85 mins
BSTAR
0.001499
Loading maneuver chart data...
Computing Atmospheric mass density...
Loading historical data...
Loading historical data...
Loading historical data...
Loading historical data...
Loading historical data...
Loading historical data...
Loading historical data...

Documentation

Showing up to 5 results
|